QPF
0.02 0.02 0.02 0.03 0.06 0.11 0.14 0.16 0.17 0.16 0.14 0.10 0.08 0.07 0.04 0.02 0.01 0.01 0.02 0.02 0.02 0.04 0.05 0.07 0.12 0.16 0.18 0.19 0.22 0.23 0.24 0.27 0.26 0.25 0.25 0.25 0.25 0.15 0.08 0.04 0.01 0.00 0.00
0.02 0.02 0.01 0.01 0.01 0.03 0.05 0.08 0.11 0.13 0.13 0.13 0.12 0.10 0.06 0.03 0.02 0.01 0.01 0.01 0.02 0.02 0.03 0.05 0.07 0.08 0.13 0.13 0.15 0.19 0.24 0.30 0.32 0.22 0.19 0.19 0.19 0.15 0.09 0.06 0.02 0.01 0.00
0.01 0.00 0.00 0.00 0.00 0.00 0.01 0.02 0.04 0.07 0.10 0.12 0.12 0.10 0.08 0.06 0.04 0.02 0.02 0.01 0.01 0.02 0.02 0.04 0.04 0.06 0.08 0.05 0.07 0.12 0.18 0.31 0.37 0.28 0.19 0.18 0.17 0.14 0.12 0.08 0.04 0.02 0.01
0.00 0.00 0.01 0.01 0.01 0.01 0.01 0.01 0.01 0.03 0.06 0.09 0.11 0.11 0.10 0.08 0.05 0.03 0.02 0.01 0.01 0.01 0.03 0.03 0.04 0.04 0.04 0.02 0.02 0.06 0.11 0.21 0.28 0.28 0.25 0.24 0.21 0.18 0.17 0.13 0.08 0.03 0.01
0.01 0.02 0.03 0.03 0.03 0.04 0.03 0.03 0.03 0.03 0.04 0.07 0.10 0.11 0.11 0.09 0.05 0.04 0.04 0.02 0.01 0.01 0.02 0.03 0.02 0.01 0.01 0.01 0.01 0.04 0.11 0.23 0.37 0.45 0.45 0.45 0.38 0.31 0.26 0.19 0.13 0.06 0.02
0.01 0.01 0.02 0.02 0.02 0.03 0.02 0.02 0.02 0.02 0.03 0.05 0.08 0.11 0.11 0.09 0.07 0.04 0.03 0.02 0.01 0.01 0.02 0.03 0.03 0.01 0.00 0.00 0.01 0.04 0.10 0.21 0.38 0.55 0.63 0.60 0.53 0.46 0.35 0.22 0.13 0.06 0.04
0.01 0.01 0.01 0.01 0.01 0.01 0.01 0.01 0.01 0.01 0.02 0.03 0.06 0.09 0.12 0.13 0.11 0.06 0.04 0.02 0.02 0.01 0.01 0.03 0.03 0.02 0.01 0.00 0.00 0.01 0.04 0.11 0.21 0.34 0.44 0.47 0.48 0.44 0.31 0.19 0.12 0.08 0.05
0.00 0.00 0.00 0.00 0.01 0.01 0.01 0.01 0.01 0.01 0.02 0.02 0.04 0.07 0.11 0.15 0.13 0.09 0.06 0.03 0.02 0.01 0.01 0.01 0.03 0.04 0.03 0.01 0.01 0.01 0.01 0.03 0.08 0.14 0.19 0.22 0.22 0.19 0.16 0.13 0.09 0.05 0.04
0.00 0.00 0.00 0.00 0.01 0.01 0.01 0.02 0.02 0.02 0.02 0.01 0.02 0.04 0.10 0.15 0.16 0.11 0.07 0.04 0.02 0.01 0.01 0.01 0.02 0.03 0.01 0.00 0.01 0.01 0.01 0.01 0.02 0.03 0.04 0.05 0.04 0.03 0.04 0.04 0.02 0.01 0.01
0.01 0.01 0.01 0.01 0.02 0.02 0.02 0.03 0.02 0.03 0.02 0.01 0.01 0.04 0.09 0.16 0.19 0.14 0.11 0.06 0.04 0.03 0.03 0.02 0.01 0.01 0.00 0.00 0.02 0.01 0.00 0.00 0.00 0.01 0.01 0.01 0.01 0.00 0.00 0.01 0.01 0.00 0.00
0.02 0.02 0.02 0.02 0.03 0.02 0.03 0.04 0.04 0.03 0.03 0.04 0.03 0.04 0.10 0.20 0.27 0.20 0.15 0.11 0.08 0.05 0.03 0.02 0.00 0.00 0.00 0.00 0.01 0.01 0.00 0.00 0.00 0.00 0.00 0.00 0.00 0.00 0.00 0.00 0.00 0.00 0.00
0.03 0.03 0.03 0.03 0.03 0.02 0.04 0.05 0.06 0.06 0.06 0.04 0.05 0.06 0.10 0.20 0.33 0.31 0.20 0.16 0.14 0.10 0.05 0.02 0.00 0.00 0.00 0.00 0.00 0.00 0.00 0.00 0.00 0.00 0.00 0.00 0.00 0.00 0.00 0.00 0.00 0.00 0.00
0.04 0.04 0.04 0.04 0.05 0.05 0.06 0.06 0.06 0.06 0.05 0.03 0.06 0.10 0.12 0.16 0.29 0.39 0.28 0.20 0.18 0.15 0.07 0.03 0.01 0.00 0.00 0.00 0.00 0.00 0.00 0.00 0.00 0.00 0.00 0.00 0.00 0.00 0.00 0.00 0.00 0.00 0.00
0.06 0.06 0.06 0.06 0.06 0.06 0.08 0.07 0.06 0.05 0.05 0.05 0.08 0.12 0.14 0.14 0.21 0.31 0.30 0.25 0.23 0.20 0.11 0.04 0.01 0.00 0.00 0.00 0.00 0.00 0.00 0.00 0.00 0.00 0.00 0.00 0.00 0.00 0.00 0.00 0.00 0.00 0.00
0.08 0.08 0.08 0.08 0.07 0.07 0.07 0.07 0.06 0.05 0.05 0.05 0.09 0.13 0.15 0.14 0.17 0.23 0.26 0.26 0.25 0.23 0.14 0.06 0.01 0.00 0.00 0.00 0.00 0.00 0.00 0.00 0.00 0.00 0.00 0.00 0.00 0.00 0.00 0.00 0.00 0.00 0.00
0.13 0.11 0.11 0.11 0.09 0.08 0.07 0.07 0.04 0.03 0.02 0.01 0.02 0.05 0.09 0.11 0.14 0.18 0.21 0.22 0.19 0.16 0.10 0.05 0.01 0.00 0.00 0.00 0.00 0.00 0.00 0.00 0.00 0.00 0.00 0.00 0.00 0.00 0.00 0.00 0.00 0.00 0.00
0.14 0.13 0.13 0.12 0.10 0.09 0.08 0.08 0.09 0.07 0.03 0.01 0.01 0.01 0.03 0.05 0.09 0.18 0.21 0.16 0.12 0.07 0.03 0.01 0.00 0.00 0.00 0.00 0.00 0.00 0.00 0.00 0.00 0.00 0.00 0.00 0.00 0.00 0.00 0.00 0.00 0.00 0.00
0.12 0.11 0.11 0.10 0.09 0.08 0.08 0.08 0.09 0.12 0.10 0.05 0.02 0.00 0.00 0.02 0.07 0.21 0.25 0.15 0.07 0.03 0.01 0.00 0.00 0.00 0.00 0.00 0.00 0.00 0.00 0.00 0.00 0.00 0.00 0.00 0.00 0.00 0.00 0.00 0.00 0.00 0.00
0.10 0.09 0.09 0.09 0.08 0.07 0.07 0.07 0.08 0.11 0.14 0.14 0.09 0.02 0.00 0.02 0.08 0.23 0.28 0.14 0.04 0.02 0.01 0.00 0.00 0.00 0.00 0.00 0.00 0.00 0.00 0.00 0.00 0.00 0.00 0.00 0.00 0.00 0.00 0.00 0.00 0.00 0.00
0.07 0.05 0.04 0.06 0.06 0.05 0.05 0.06 0.09 0.12 0.14 0.15 0.12 0.04 0.01 0.02 0.07 0.20 0.26 0.13 0.03 0.02 0.01 0.00 0.00 0.00 0.00 0.00 0.00 0.00 0.00 0.00 0.00 0.00 0.00 0.00 0.00 0.00 0.00 0.00 0.00 0.00 0.00
0.06 0.05 0.03 0.03 0.03 0.04 0.06 0.08 0.10 0.12 0.12 0.12 0.10 0.04 0.01 0.02 0.05 0.12 0.16 0.08 0.03 0.01 0.00 0.00 0.00 0.00 0.00 0.00 0.00 0.00 0.00 0.00 0.00 0.00 0.00 0.00 0.00 0.00 0.00 0.00 0.00 0.00 0.00
0.06 0.06 0.05 0.05 0.06 0.08 0.09 0.11 0.12 0.11 0.09 0.08 0.05 0.01 0.01 0.03 0.04 0.08 0.08 0.04 0.02 0.01 0.00 0.00 0.00 0.00 0.00 0.00 0.00 0.00 0.00 0.00 0.00 0.00 0.00 0.00 0.00 0.00 0.00 0.00 0.00 0.00 0.00
0.06 0.07 0.06 0.07 0.08 0.07 0.08 0.11 0.10 0.08 0.06 0.05 0.02 0.01 0.01 0.02 0.03 0.04 0.03 0.02 0.01 0.00 0.00 0.00 0.00 0.00 0.00 0.00 0.00 0.00 0.00 0.00 0.00 0.00 0.00 0.00 0.00 0.00 0.00 0.00 0.00 0.00 0.00
0.04 0.04 0.04 0.04 0.06 0.06 0.07 0.07 0.06 0.05 0.05 0.04 0.02 0.01 0.00 0.01 0.01 0.01 0.01 0.00 0.00 0.00 0.00 0.00 0.00 0.00 0.00 0.00 0.00 0.00 0.00 0.00 0.00 0.00 0.00 0.00 0.00 0.00 0.00 0.00 0.00 0.00 0.00
0.04 0.04 0.05 0.05 0.05 0.06 0.06 0.06 0.06 0.05 0.05 0.04 0.02 0.01 0.01 0.01 0.01 0.00 0.00 0.00 0.00 0.00 0.00 0.00 0.00 0.00 0.00 0.00 0.00 0.00 0.00 0.00 0.00 0.00 0.00 0.00 0.00 0.00 0.00 0.00 0.00 0.00 0.00
0.06 0.08 0.10 0.10 0.10 0.09 0.08 0.08 0.07 0.05 0.04 0.03 0.02 0.02 0.03 0.02 0.02 0.01 0.00 0.00 0.00 0.00 0.00 0.00 0.00 0.00 0.00 0.00 0.00 0.00 0.00 0.00 0.00 0.00 0.00 0.00 0.00 0.00 0.00 0.00 0.00 0.00 0.00
MSLP
1011.34 1011.33 1011.23 1011.03 1010.72 1010.32 1009.87 1009.40 1008.95 1008.57 1008.26 1008.02 1007.85 1007.72 1007.59 1007.45 1007.28 1007.08 1006.88 1006.68 1006.51 1006.39 1006.32 1006.29 1006.29 1006.29 1006.26 1006.18 1006.04 1005.85 1005.63 1005.42 1005.27 1005.21 1005.30 1005.55 1005.97 1006.54 1007.23 1008.00 1008.78 1009.53 1010.21
1011.22 1011.21 1011.13 1010.95 1010.66 1010.28 1009.85 1009.39 1008.95 1008.54 1008.20 1007.91 1007.68 1007.48 1007.29 1007.09 1006.88 1006.66 1006.43 1006.23 1006.05 1005.93 1005.85 1005.82 1005.80 1005.78 1005.74 1005.65 1005.52 1005.35 1005.18 1005.04 1004.96 1005.01 1005.20 1005.56 1006.08 1006.74 1007.51 1008.33 1009.17 1009.96 1010.66
1010.84 1010.82 1010.74 1010.57 1010.31 1009.97 1009.58 1009.16 1008.75 1008.36 1008.02 1007.71 1007.45 1007.21 1006.98 1006.75 1006.51 1006.28 1006.06 1005.86 1005.70 1005.59 1005.52 1005.49 1005.47 1005.44 1005.39 1005.31 1005.19 1005.04 1004.91 1004.82 1004.82 1004.94 1005.21 1005.64 1006.23 1006.94 1007.75 1008.61 1009.46 1010.27 1010.99
1010.20 1010.16 1010.07 1009.91 1009.68 1009.39 1009.05 1008.69 1008.34 1007.99 1007.68 1007.39 1007.12 1006.87 1006.63 1006.39 1006.15 1005.92 1005.72 1005.55 1005.43 1005.35 1005.31 1005.30 1005.29 1005.28 1005.24 1005.17 1005.07 1004.96 1004.86 1004.83 1004.88 1005.05 1005.37 1005.83 1006.44 1007.17 1007.98 1008.82 1009.66 1010.45 1011.16
1009.35 1009.27 1009.16 1009.01 1008.80 1008.56 1008.29 1008.01 1007.72 1007.44 1007.18 1006.92 1006.68 1006.44 1006.20 1005.97 1005.76 1005.56 1005.39 1005.26 1005.19 1005.16 1005.17 1005.20 1005.23 1005.25 1005.24 1005.20 1005.14 1005.07 1005.02 1005.02 1005.11 1005.32 1005.65 1006.13 1006.72 1007.42 1008.18 1008.97 1009.75 1010.50 1011.18
1008.36 1008.25 1008.11 1007.96 1007.78 1007.59 1007.38 1007.17 1006.95 1006.74 1006.53 1006.32 1006.12 1005.91 1005.70 1005.49 1005.31 1005.15 1005.02 1004.95 1004.94 1004.97 1005.03 1005.12 1005.21 1005.28 1005.32 1005.33 1005.31 1005.29 1005.29 1005.34 1005.47 1005.70 1006.04 1006.49 1007.04 1007.67 1008.35 1009.06 1009.76 1010.44 1011.07
1007.34 1007.19 1007.04 1006.88 1006.72 1006.56 1006.40 1006.25 1006.10 1005.94 1005.79 1005.63 1005.46 1005.29 1005.11 1004.94 1004.79 1004.68 1004.61 1004.60 1004.64 1004.73 1004.86 1005.01 1005.15 1005.29 1005.39 1005.46 1005.51 1005.55 1005.61 1005.71 1005.88 1006.12 1006.45 1006.87 1007.36 1007.92 1008.51 1009.11 1009.71 1010.30 1010.87
1006.40 1006.23 1006.06 1005.89 1005.74 1005.59 1005.46 1005.34 1005.23 1005.12 1005.01 1004.89 1004.76 1004.62 1004.48 1004.35 1004.25 1004.18 1004.17 1004.21 1004.30 1004.45 1004.63 1004.84 1005.04 1005.23 1005.39 1005.53 1005.65 1005.77 1005.89 1006.05 1006.26 1006.52 1006.85 1007.24 1007.68 1008.15 1008.64 1009.14 1009.65 1010.15 1010.64
1005.61 1005.43 1005.24 1005.07 1004.90 1004.76 1004.63 1004.52 1004.42 1004.33 1004.24 1004.15 1004.05 1003.95 1003.85 1003.77 1003.71 1003.69 1003.72 1003.81 1003.95 1004.14 1004.37 1004.61 1004.86 1005.10 1005.32 1005.52 1005.71 1005.90 1006.09 1006.32 1006.57 1006.87 1007.20 1007.57 1007.96 1008.36 1008.77 1009.18 1009.60 1010.01 1010.44
1005.01 1004.82 1004.62 1004.42 1004.24 1004.07 1003.92 1003.80 1003.70 1003.61 1003.53 1003.46 1003.39 1003.32 1003.27 1003.23 1003.23 1003.26 1003.34 1003.47 1003.64 1003.86 1004.11 1004.38 1004.65 1004.92 1005.19 1005.44 1005.69 1005.95 1006.22 1006.50 1006.81 1007.14 1007.50 1007.86 1008.22 1008.57 1008.92 1009.26 1009.60 1009.94 1010.31
1004.56 1004.35 1004.13 1003.91 1003.70 1003.50 1003.32 1003.17 1003.05 1002.95 1002.88 1002.82 1002.79 1002.77 1002.77 1002.79 1002.84 1002.93 1003.05 1003.21 1003.41 1003.65 1003.90 1004.18 1004.46 1004.75 1005.04 1005.33 1005.63 1005.95 1006.28 1006.63 1006.99 1007.37 1007.74 1008.11 1008.46 1008.78 1009.09 1009.38 1009.67 1009.96 1010.28
1004.16 1003.94 1003.70 1003.45 1003.20 1002.97 1002.75 1002.57 1002.43 1002.33 1002.27 1002.24 1002.25 1002.29 1002.35 1002.44 1002.56 1002.70 1002.87 1003.07 1003.28 1003.52 1003.77 1004.04 1004.31 1004.60 1004.90 1005.22 1005.56 1005.93 1006.31 1006.71 1007.13 1007.54 1007.95 1008.33 1008.68 1008.99 1009.28 1009.54 1009.80 1010.06 1010.35
1003.71 1003.48 1003.21 1002.94 1002.66 1002.39 1002.15 1001.95 1001.80 1001.70 1001.66 1001.68 1001.75 1001.85 1002.00 1002.17 1002.36 1002.57 1002.78 1003.01 1003.24 1003.47 1003.71 1003.96 1004.22 1004.50 1004.80 1005.14 1005.50 1005.90 1006.33 1006.78 1007.24 1007.69 1008.12 1008.52 1008.87 1009.19 1009.47 1009.72 1009.97 1010.22 1010.50
1003.12 1002.86 1002.57 1002.28 1001.98 1001.70 1001.45 1001.24 1001.11 1001.04 1001.04 1001.12 1001.25 1001.44 1001.68 1001.93 1002.20 1002.47 1002.74 1002.99 1003.23 1003.46 1003.68 1003.91 1004.15 1004.42 1004.72 1005.06 1005.45 1005.87 1006.33 1006.82 1007.31 1007.79 1008.24 1008.66 1009.02 1009.35 1009.63 1009.89 1010.14 1010.40 1010.68
1002.33 1002.04 1001.74 1001.44 1001.14 1000.86 1000.63 1000.45 1000.34 1000.32 1000.39 1000.54 1000.76 1001.04 1001.36 1001.70 1002.05 1002.38 1002.69 1002.96 1003.21 1003.43 1003.63 1003.84 1004.06 1004.32 1004.61 1004.96 1005.36 1005.81 1006.30 1006.81 1007.33 1007.83 1008.30 1008.72 1009.10 1009.44 1009.73 1010.00 1010.27 1010.54 1010.84
1001.37 1001.06 1000.76 1000.46 1000.18 999.93 999.73 999.60 999.55 999.59 999.73 999.96 1000.27 1000.64 1001.04 1001.46 1001.87 1002.25 1002.59 1002.88 1003.12 1003.33 1003.52 1003.71 1003.91 1004.16 1004.45 1004.81 1005.22 1005.69 1006.20 1006.73 1007.26 1007.78 1008.26 1008.70 1009.08 1009.43 1009.74 1010.04 1010.33 1010.63 1010.95
1000.34 1000.02 999.73 999.45 999.20 999.00 998.85 998.78 998.80 998.92 999.13 999.44 999.83 1000.27 1000.74 1001.22 1001.67 1002.09 1002.44 1002.73 1002.97 1003.16 1003.33 1003.50 1003.69 1003.93 1004.22 1004.59 1005.01 1005.50 1006.03 1006.57 1007.12 1007.64 1008.13 1008.57 1008.96 1009.32 1009.65 1009.97 1010.29 1010.63 1010.98
999.37 999.05 998.78 998.54 998.34 998.19 998.10 998.10 998.19 998.37 998.65 999.03 999.48 999.98 1000.50 1001.01 1001.48 1001.91 1002.26 1002.54 1002.76 1002.93 1003.08 1003.23 1003.41 1003.64 1003.93 1004.30 1004.74 1005.24 1005.78 1006.34 1006.89 1007.42 1007.91 1008.35 1008.76 1009.13 1009.48 1009.82 1010.17 1010.54 1010.92
998.59 998.29 998.04 997.84 997.70 997.61 997.58 997.64 997.79 998.03 998.36 998.78 999.27 999.80 1000.34 1000.86 1001.34 1001.76 1002.09 1002.36 1002.55 1002.69 1002.82 1002.95 1003.11 1003.34 1003.63 1004.00 1004.45 1004.95 1005.50 1006.06 1006.61 1007.14 1007.64 1008.08 1008.50 1008.88 1009.24 1009.61 1009.98 1010.37 1010.78
998.09 997.81 997.60 997.45 997.35 997.31 997.34 997.44 997.63 997.91 998.27 998.71 999.21 999.75 1000.29 1000.80 1001.27 1001.66 1001.98 1002.21 1002.38 1002.50 1002.60 1002.71 1002.86 1003.07 1003.36 1003.73 1004.17 1004.68 1005.22 1005.78 1006.33 1006.86 1007.35 1007.80 1008.21 1008.60 1008.98 1009.36 1009.75 1010.15 1010.57
997.89 997.64 997.47 997.35 997.30 997.29 997.35 997.48 997.69 997.98 998.35 998.79 999.28 999.80 1000.33 1000.82 1001.26 1001.63 1001.92 1002.13 1002.27 1002.37 1002.45 1002.55 1002.68 1002.89 1003.16 1003.52 1003.96 1004.45 1004.99 1005.54 1006.08 1006.60 1007.08 1007.53 1007.95 1008.34 1008.72 1009.10 1009.49 1009.90 1010.31
997.93 997.72 997.58 997.50 997.46 997.48 997.55 997.69 997.89 998.17 998.52 998.94 999.41 999.90 1000.40 1000.86 1001.28 1001.63 1001.89 1002.09 1002.22 1002.30 1002.38 1002.46 1002.59 1002.79 1003.05 1003.40 1003.82 1004.30 1004.82 1005.35 1005.88 1006.39 1006.86 1007.30 1007.71 1008.10 1008.47 1008.85 1009.23 1009.62 1010.01
998.13 997.95 997.83 997.76 997.74 997.75 997.82 997.93 998.11 998.36 998.68 999.06 999.49 999.95 1000.42 1000.86 1001.25 1001.59 1001.85 1002.04 1002.17 1002.26 1002.34 1002.43 1002.56 1002.75 1003.01 1003.35 1003.75 1004.22 1004.71 1005.23 1005.74 1006.23 1006.69 1007.11 1007.51 1007.89 1008.25 1008.60 1008.96 1009.32 1009.68
998.34 998.18 998.07 998.01 997.97 997.97 998.01 998.10 998.24 998.45 998.72 999.06 999.45 999.87 1000.31 1000.72 1001.11 1001.44 1001.71 1001.91 1002.06 1002.18 1002.27 1002.39 1002.53 1002.73 1002.99 1003.33 1003.72 1004.17 1004.65 1005.14 1005.63 1006.10 1006.55 1006.96 1007.34 1007.69 1008.03 1008.36 1008.68 1009.00 1009.32
998.49 998.33 998.22 998.14 998.08 998.05 998.05 998.09 998.19 998.35 998.58 998.87 999.22 999.61 1000.02 1000.42 1000.80 1001.14 1001.43 1001.66 1001.84 1001.99 1002.13 1002.28 1002.45 1002.67 1002.95 1003.29 1003.68 1004.12 1004.59 1005.07 1005.55 1006.00 1006.42 1006.81 1007.17 1007.50 1007.80 1008.09 1008.38 1008.66 1008.93
998.51 998.34 998.21 998.10 998.01 997.95 997.91 997.91 997.96 998.08 998.26 998.51 998.82 999.18 999.57 999.96 1000.34 1000.70 1001.01 1001.27 1001.50 1001.70 1001.88 1002.08 1002.29 1002.55 1002.86 1003.22 1003.62 1004.06 1004.53 1005.00 1005.46 1005.90 1006.30 1006.66 1006.99 1007.29 1007.56 1007.82 1008.06 1008.29 1008.52
Thickness
5649 5648 5648 5649 5651 5655 5659 5663 5666 5670 5674 5679 5682 5685 5686 5688 5690 5691 5692 5694 5695 5696 5696 5695 5693 5694 5692 5690 5689 5687 5686 5685 5683 5688 5692 5694 5693 5690 5686 5684 5682 5680 5677
5631 5630 5630 5631 5632 5634 5638 5641 5646 5651 5657 5662 5668 5673 5676 5680 5683 5685 5687 5690 5690 5690 5690 5689 5688 5689 5688 5686 5684 5683 5683 5685 5683 5681 5682 5683 5681 5680 5677 5674 5672 5669 5666
5615 5614 5613 5614 5615 5616 5618 5621 5624 5630 5637 5645 5651 5658 5664 5670 5674 5678 5681 5684 5685 5685 5685 5684 5683 5683 5682 5681 5679 5679 5680 5683 5683 5679 5675 5674 5671 5669 5666 5663 5660 5657 5655
5598 5596 5595 5596 5597 5599 5601 5603 5606 5610 5617 5625 5633 5641 5649 5657 5664 5669 5673 5677 5679 5680 5680 5679 5679 5678 5677 5676 5674 5674 5676 5679 5678 5674 5668 5664 5661 5659 5657 5653 5648 5647 5646
5579 5576 5575 5576 5577 5579 5582 5585 5589 5593 5599 5606 5614 5622 5631 5640 5650 5658 5662 5668 5671 5672 5673 5673 5673 5671 5670 5669 5669 5669 5670 5671 5669 5665 5659 5655 5652 5648 5646 5645 5642 5639 5638
5561 5558 5556 5556 5557 5558 5562 5566 5571 5576 5582 5589 5596 5604 5613 5623 5633 5640 5648 5656 5661 5664 5665 5665 5664 5663 5662 5662 5662 5662 5664 5664 5662 5657 5652 5647 5642 5640 5639 5638 5636 5633 5629
5553 5551 5549 5548 5548 5549 5551 5554 5557 5560 5565 5571 5579 5588 5596 5605 5614 5624 5633 5643 5649 5654 5657 5657 5659 5656 5655 5655 5654 5654 5655 5655 5656 5652 5646 5641 5636 5634 5633 5631 5631 5630 5630
5546 5545 5544 5543 5543 5544 5546 5549 5550 5551 5553 5557 5563 5571 5580 5590 5599 5609 5617 5627 5636 5643 5647 5650 5650 5647 5649 5649 5648 5646 5645 5645 5645 5645 5642 5637 5634 5632 5631 5630 5629 5628 5629
5539 5537 5536 5535 5536 5537 5539 5542 5545 5546 5547 5549 5553 5558 5565 5573 5581 5592 5600 5610 5620 5630 5637 5641 5642 5641 5641 5642 5641 5638 5635 5634 5635 5635 5634 5632 5631 5630 5630 5629 5627 5624 5621
5530 5528 5526 5526 5527 5529 5531 5534 5536 5538 5541 5544 5548 5551 5554 5559 5564 5573 5581 5592 5605 5618 5626 5630 5632 5633 5633 5634 5633 5632 5628 5626 5626 5625 5625 5626 5627 5627 5627 5626 5625 5623 5620
5520 5518 5516 5515 5516 5519 5522 5525 5527 5529 5532 5536 5540 5543 5546 5549 5551 5557 5566 5575 5587 5600 5611 5617 5620 5622 5624 5626 5627 5626 5623 5622 5621 5621 5620 5620 5621 5621 5620 5621 5623 5624 5621
5506 5505 5505 5505 5506 5511 5514 5516 5518 5520 5523 5527 5531 5535 5539 5541 5542 5545 5553 5563 5571 5580 5594 5606 5609 5610 5614 5617 5619 5618 5617 5617 5616 5615 5614 5614 5614 5612 5612 5614 5617 5620 5620
5493 5493 5494 5496 5497 5499 5502 5505 5508 5511 5514 5520 5526 5530 5533 5535 5535 5536 5542 5552 5561 5569 5580 5592 5597 5599 5603 5606 5608 5609 5610 5611 5611 5610 5609 5608 5607 5606 5606 5608 5610 5613 5614
5481 5482 5484 5486 5488 5490 5493 5496 5499 5503 5507 5512 5518 5524 5528 5529 5529 5529 5533 5542 5552 5562 5570 5578 5583 5588 5594 5595 5597 5600 5603 5607 5608 5607 5604 5602 5600 5601 5601 5603 5604 5605 5604
5470 5472 5474 5476 5479 5482 5485 5488 5491 5496 5499 5503 5509 5516 5521 5523 5525 5525 5527 5535 5544 5553 5556 5564 5573 5580 5584 5586 5589 5593 5597 5600 5602 5601 5598 5596 5596 5598 5599 5601 5602 5602 5600
5464 5466 5467 5469 5472 5474 5477 5481 5485 5488 5492 5496 5502 5508 5516 5519 5518 5516 5518 5523 5534 5542 5548 5558 5569 5577 5579 5581 5585 5588 5591 5594 5596 5595 5594 5593 5595 5597 5599 5601 5601 5600 5598
5460 5462 5462 5463 5465 5467 5470 5474 5479 5482 5486 5492 5498 5504 5509 5511 5511 5510 5512 5518 5527 5536 5546 5557 5567 5573 5577 5579 5581 5584 5586 5589 5591 5591 5591 5592 5595 5596 5597 5598 5600 5600 5598
5460 5460 5460 5460 5460 5463 5466 5471 5477 5482 5489 5495 5495 5498 5502 5504 5504 5505 5509 5515 5525 5535 5548 5558 5565 5571 5575 5578 5580 5582 5584 5585 5587 5589 5590 5592 5593 5594 5595 5596 5597 5597 5595
5462 5460 5459 5458 5459 5462 5467 5473 5479 5486 5491 5497 5499 5496 5495 5497 5499 5502 5508 5520 5532 5540 5549 5557 5565 5571 5575 5578 5580 5581 5582 5583 5586 5589 5590 5591 5593 5594 5594 5595 5593 5590 5591
5467 5462 5460 5460 5463 5467 5473 5479 5485 5491 5496 5500 5502 5502 5498 5500 5501 5503 5512 5523 5533 5541 5549 5556 5564 5570 5575 5579 5580 5581 5581 5583 5586 5588 5588 5590 5592 5593 5593 5593 5589 5588 5587
5475 5472 5468 5469 5473 5478 5483 5489 5494 5499 5503 5506 5507 5506 5504 5508 5508 5512 5519 5527 5536 5543 5550 5558 5565 5571 5577 5579 5580 5581 5582 5584 5586 5588 5588 5590 5592 5592 5591 5590 5586 5585 5584
5486 5484 5484 5485 5487 5490 5495 5499 5503 5506 5509 5511 5510 5508 5506 5514 5515 5518 5525 5532 5539 5546 5553 5560 5566 5573 5578 5581 5582 5583 5584 5585 5586 5589 5588 5589 5590 5590 5589 5587 5584 5583 5580
5497 5497 5496 5497 5499 5500 5504 5507 5510 5513 5515 5517 5517 5516 5516 5521 5524 5527 5531 5537 5543 5550 5557 5563 5569 5575 5581 5584 5586 5587 5588 5587 5589 5590 5589 5588 5587 5587 5586 5584 5582 5579 5576
5506 5506 5507 5508 5508 5510 5512 5514 5517 5520 5522 5523 5525 5526 5527 5530 5533 5537 5541 5546 5550 5556 5561 5568 5573 5579 5583 5586 5588 5590 5592 5592 5591 5590 5589 5587 5585 5583 5582 5580 5578 5576 5572
5518 5515 5515 5514 5515 5516 5518 5521 5524 5526 5528 5530 5532 5534 5537 5540 5544 5547 5551 5555 5558 5562 5568 5573 5578 5583 5586 5589 5590 5591 5591 5591 5590 5588 5586 5585 5583 5580 5578 5576 5573 5571 5568
5533 5530 5527 5525 5525 5526 5527 5529 5531 5534 5537 5539 5542 5544 5548 5552 5556 5558 5561 5564 5567 5571 5575 5579 5583 5586 5589 5591 5591 5588 5587 5586 5585 5584 5584 5581 5579 5577 5575 5572 5570 5567 5565